[[{"header":{"parameterUnit":"m.s-1","parameterCategory":1,"la1":30.2991,"la2":30.254,"lo1":-89.0895,"lo2":-89.0444,"dy":0.0017,"dx":0.0017,"nx":28,"ny":28,"refTime":"2023-08-09T09:00:00:Z","depth":0,"parameterNumber":2,"parameterNumberName":"U-component_of_WINDS"},"data":[0,0,0,0,0,0,0,0,0,0,0,0,0,0,0,0,0,0,0,0,0,0,0,0,0,0,0,0,0,0,0,0,0,0,0,0,0,0,0,0,0,0,0,0,0,0,0,0,0,0,0,0,0,0,0,0,0,0,2.1707,2.1707,0,2.172,2.1721,2.1721,2.1632,2.1629,2.1627,2.1624,2.1639,2.1642,2.1645,0,0,0,0,0,0,0,0,0,0,0,0,0,2.1604,2.1606,2.1707,2.1707,2.1707,2.172,2.1721,2.1721,2.1632,2.1629,2.1626,2.1623,2.1639,2.1642,2.1645,0,0,0,0,0,0,0,0,0,0,0,0,0,2.1636,2.1607,2.1707,2.1665,2.1661,2.172,2.1721,2.1721,2.1633,2.1629,2.1625,2.1622,2.1637,2.1641,2.1646,2.1746,0,0,2.1658,2.166,0,0,0,0,0,0,0,0,2.1635,2.164,2.1671,2.1668,2.1664,2.1671,2.169,2.1729,2.1634,2.1644,2.1624,2.162,2.1653,2.1656,2.1666,2.1747,2.1748,2.1658,2.1661,2.1663,2.1664,0,0,0,0,0,0,0,2.1632,2.1639,2.1712,2.1671,2.1667,2.1645,2.1645,2.1697,2.1669,2.1642,2.1636,2.1639,2.165,2.1663,2.1666,2.1748,2.1658,2.1662,2.1665,2.1666,2.1909,2.1913,0,0,0,0,0,0,2.1636,2.1638,2.1712,2.1713,2.1639,2.165,2.165,2.1672,2.1668,2.1664,2.1642,2.1635,2.1657,2.1661,2.1666,2.1781,2.1663,2.1667,2.1669,2.1905,2.191,2.1914,0,0,0,0,0,0,2.1634,2.1643,2.1711,2.1673,2.168,2.1656,2.1681,2.1674,2.1686,2.1668,2.1663,2.166,2.1655,2.166,2.1726,2.178,2.1668,2.1672,2.19,2.1906,2.1912,2.2014,0,0,0,0,0,0,2.1631,2.1643,2.1681,2.1675,2.1683,2.1771,2.1684,2.1677,2.1694,2.1684,2.1683,2.1679,2.1652,2.1721,2.173,2.1784,2.1675,2.1895,2.1903,2.191,2.2005,2.2022,2.2037,0,0,0,0,0,2.1628,2.171,2.1684,2.1693,2.173,2.1775,2.1779,2.1746,2.1699,2.1736,2.1724,2.1679,2.1774,2.1728,2.1738,2.1794,2.1891,2.1901,2.1909,2.1998,2.2019,2.2037,0,0,0,0,0,0,2.1725,2.1709,2.1679,2.1762,2.177,2.176,2.1806,2.1769,2.1791,2.1782,2.174,2.174,2.1812,2.181,2.176,2.189,2.1824,2.1836,2.1888,2.1908,2.1924,2.1921,2.1679,0,0,0,0,0,2.1756,2.1793,2.1777,2.1852,2.1858,2.1832,2.185,2.1823,2.183,2.1833,2.1826,2.1835,2.1866,2.1887,2.1915,2.2006,2.2003,2.2049,2.2065,2.2078,2.2087,2.2132,2.2152,2.1943,2.1943,2.1943,0,0,2.182,2.1816,2.1842,2.1871,2.1874,2.1913,2.1835,2.1881,2.1909,2.184,2.1901,2.1896,2.1903,2.1981,2.2015,2.1981,2.2145,2.2089,2.21,2.2102,2.2143,2.2163,2.2181,2.1949,2.1948,2.1947,0,0,2.1956,2.1958,2.2018,2.2023,2.2029,2.201,2.2025,2.202,2.2014,2.2074,2.2023,2.2056,2.2112,2.2118,2.2128,2.2266,2.2224,2.2276,2.2358,2.2402,2.2418,2.2433,2.2479,2.2496,2.2286,2.2287,2.2287,0,2.2035,2.2091,2.2055,2.2102,2.2116,2.2055,2.2116,2.2122,2.2137,2.2148,2.211,2.2176,2.2177,2.2254,2.2287,2.2299,2.2313,2.2275,2.2419,2.2433,2.2446,2.2489,2.2507,2.2293,2.2292,2.2291,2.2291,0,2.2186,2.2227,2.2275,2.2289,2.2308,2.2363,2.2333,2.2358,2.233,2.2315,2.2376,2.2375,2.24,2.2417,2.2391,2.249,2.2469,2.2426,2.2358,2.2472,2.2512,2.2529,2.2301,2.2299,2.2297,2.2296,0,0,2.2383,2.2375,2.2393,2.2397,2.2399,2.2429,2.248,2.2504,2.2524,2.2537,2.2577,2.2625,2.2585,2.2597,2.2571,2.261,2.2715,2.2562,2.2562,2.2588,2.2821,2.2851,2.2871,2.2689,2.2692,2.2695,2.2819,0,2.2513,2.2598,2.2566,2.2654,2.2689,2.2632,2.2676,2.2682,2.267,2.2698,2.2685,2.2718,2.2665,2.2671,2.2707,2.2695,2.2761,2.2686,2.2725,2.2727,2.2721,2.2892,2.2924,2.3042,2.2835,2.2838,2.284,0,2.2676,2.2693,2.2784,2.2776,2.279,2.283,2.2848,2.2877,2.2881,2.287,2.2883,2.2848,2.2897,2.2832,2.2897,2.2847,2.2861,2.2857,2.2861,2.2861,2.2788,2.2894,2.3079,2.3096,2.2865,2.2863,2.2861,0,2.2805,2.2852,2.2911,2.2917,2.2912,2.2941,2.294,2.2941,2.2956,2.2973,2.2982,2.3005,2.3017,2.3035,2.3007,2.2963,2.3076,2.3009,2.3066,2.3067,2.309,2.3089,2.3277,2.3105,2.3105,2.3105,2.3104,0,2.2952,2.3009,2.2969,2.3005,2.3067,2.303,2.3092,2.3085,2.3086,2.3119,2.3073,2.3106,2.3068,2.3097,2.3076,2.3132,2.3138,2.3129,2.3122,2.3132,2.3133,2.3138,2.3128,2.3109,2.3108,2.3107,2.3107,0,2.3106,2.3082,2.3142,2.3131,2.313,2.3176,2.3166,2.3199,2.3184,2.3227,2.3235,2.3212,2.3243,2.3217,2.3249,2.3234,2.3308,2.3291,2.3306,2.33,2.3357,2.3351,2.3554,2.3577,2.3393,2.3395,2.3397,0,2.3199,2.3241,2.3235,2.3253,2.3255,2.3286,2.3301,2.3267,2.3285,2.3293,2.3324,2.3352,2.3371,2.3424,2.341,2.3433,2.3414,2.3484,2.3418,2.3425,2.3412,2.3408,2.3411,2.3497,2.3499,2.3501,2.3502,0,2.3367,2.3352,2.3376,2.3395,2.3414,2.3428,2.3438,2.3457,2.3421,2.3444,2.3474,2.349,2.3521,2.3548,2.3566,2.3565,2.3527,2.3523,2.3537,2.3546,2.3551,2.3546,2.3339,2.3518,2.3517,2.3515,2.3514,2.3514,2.3491,2.3525,2.3525,2.3552,2.3556,2.3566,2.3595,2.3584,2.3609,2.363,2.3609,2.3646,2.3648,2.3669,2.3672,2.37,2.3671,2.3692,2.3697,2.3702,2.3709,2.3549,2.3704,2.3704,2.3703,2.3703,2.3702,0,2.3653,2.365,2.3676,2.369,2.3712,2.3675,2.3684,2.3704,2.3737,2.3742,2.3762,2.3797,2.3822,2.381,2.3833,2.3858,2.3841,2.3864,2.3861,2.386,2.3735,2.3719,2.3877,2.3877,2.3877,2.3877,2.3877,2.3877,2.374,2.3794,2.3779,2.3835,2.3831,2.3866,2.3874,2.3883,2.3886,2.3927,2.3948,2.3939,2.3937,2.3959,2.3981,2.3977,2.3986,2.4015,2.4005,2.3887,2.387,2.3853,2.3838,2.4018,2.4019,2.4127,2.4128,2.4129]},{"header":{"parameterUnit":"m.s-1","parameterCategory":1,"la1":30.2991,"la2":30.254,"lo1":-89.0895,"lo2":-89.0444,"dy":0.0017,"dx":0.0017,"nx":28,"ny":28,"refTime":"2023-08-09T09:00:00:Z","depth":0,"parameterNumber":3,"parameterNumberName":"V-component_of_WINDS"},"data":[0,0,0,0,0,0,0,0,0,0,0,0,0,0,0,0,0,0,0,0,0,0,0,0,0,0,0,0,0,0,0,0,0,0,0,0,0,0,0,0,0,0,0,0,0,0,0,0,0,0,0,0,0,0,0,0,0,0,3.2105,3.2105,0,3.2121,3.2121,3.2121,3.2047,3.2045,3.2042,3.204,3.2055,3.2057,3.2059,0,0,0,0,0,0,0,0,0,0,0,0,0,3.2006,3.2008,3.2105,3.2105,3.2105,3.2121,3.2121,3.2121,3.2047,3.2044,3.2042,3.2039,3.2054,3.2057,3.206,0,0,0,0,0,0,0,0,0,0,0,0,0,3.2038,3.2009,3.2104,3.207,3.2067,3.2121,3.2121,3.2121,3.2048,3.2044,3.2041,3.2038,3.2053,3.2056,3.206,3.2147,0,0,3.2071,3.2072,0,0,0,0,0,0,0,0,3.2036,3.2042,3.2075,3.2072,3.2069,3.2078,3.2091,3.213,3.2048,3.2055,3.204,3.2037,3.2065,3.2067,3.2078,3.2148,3.2148,3.2071,3.2073,3.2075,3.2076,0,0,0,0,0,0,0,3.2034,3.2041,3.2111,3.2075,3.2072,3.2052,3.2053,3.2098,3.2078,3.2054,3.2049,3.2052,3.2063,3.2074,3.2077,3.2149,3.2071,3.2074,3.2077,3.2078,3.2289,3.2292,0,0,0,0,0,0,3.2037,3.2039,3.211,3.2111,3.2044,3.2057,3.2058,3.2079,3.2077,3.2074,3.2055,3.2048,3.207,3.2073,3.2078,3.2178,3.2075,3.2078,3.208,3.2285,3.2289,3.2293,0,0,0,0,0,0,3.2035,3.2044,3.211,3.2074,3.2081,3.2062,3.2086,3.2081,3.2092,3.2078,3.2073,3.207,3.2067,3.2072,3.213,3.2177,3.208,3.2083,3.2281,3.2287,3.2291,3.238,0,0,0,0,0,0,3.2033,3.2044,3.2078,3.2075,3.2083,3.2163,3.2089,3.2083,3.2099,3.2091,3.2091,3.2088,3.2065,3.2125,3.2134,3.218,3.2086,3.2277,3.2284,3.229,3.2372,3.2387,3.24,0,0,0,0,0,3.2029,3.2102,3.208,3.2089,3.2125,3.2166,3.217,3.2143,3.2103,3.2136,3.2126,3.2088,3.2171,3.2132,3.2141,3.2189,3.2274,3.2282,3.2289,3.2366,3.2384,3.24,0,0,0,0,0,0,3.2109,3.2101,3.2076,3.215,3.216,3.2153,3.2194,3.2163,3.2184,3.2175,3.214,3.2141,3.2204,3.2202,3.2159,3.2272,3.2215,3.2225,3.2271,3.2288,3.2301,3.2299,3.2089,0,0,0,0,0,3.2136,3.2171,3.2161,3.2227,3.2233,3.2213,3.223,3.2208,3.2216,3.222,3.2214,3.2223,3.225,3.2269,3.2294,3.2372,3.237,3.241,3.2424,3.2435,3.2444,3.2483,3.25,3.2319,3.2319,3.2318,0,0,3.219,3.219,3.2214,3.2243,3.2248,3.2283,3.2217,3.2258,3.2284,3.2225,3.2279,3.2276,3.2282,3.235,3.238,3.2351,3.2494,3.2445,3.2454,3.2456,3.2493,3.251,3.2525,3.2324,3.2323,3.2322,0,0,3.2307,3.2312,3.2366,3.2372,3.238,3.2366,3.238,3.2378,3.2374,3.2427,3.2384,3.2414,3.2463,3.2469,3.2478,3.2598,3.2562,3.2607,3.2678,3.2717,3.2731,3.2743,3.2784,3.2799,3.2616,3.2616,3.2616,0,3.2374,3.2427,3.2398,3.2442,3.2455,3.2405,3.2459,3.2466,3.2482,3.2491,3.2459,3.2518,3.252,3.2587,3.2616,3.2627,3.2639,3.2606,3.2731,3.2744,3.2755,3.2793,3.2809,3.2621,3.262,3.262,3.2619,0,3.2507,3.2545,3.2588,3.2604,3.2622,3.2671,3.2648,3.267,3.2647,3.2636,3.2691,3.269,3.2714,3.2728,3.2706,3.2793,3.2774,3.2738,3.2679,3.2778,3.2813,3.2828,3.2628,3.2627,3.2625,3.2624,0,0,3.2674,3.2674,3.269,3.2696,3.2701,3.2729,3.2775,3.2798,3.2817,3.2829,3.2866,3.2908,3.2874,3.2885,3.2863,3.2897,3.2989,3.2856,3.2855,3.2879,3.3082,3.3109,3.3126,3.2967,3.2969,3.2972,3.3081,0,3.2787,3.2866,3.2841,3.2921,3.2954,3.2906,3.2946,3.2953,3.2944,3.297,3.296,3.299,3.2943,3.2949,3.2981,3.2971,3.3029,3.2963,3.2998,3.3,3.2997,3.3145,3.3173,3.3277,3.3095,3.3097,3.3099,0,3.293,3.2948,3.3031,3.3029,3.3042,3.3078,3.3096,3.3123,3.3129,3.312,3.3132,3.3103,3.3146,3.3089,3.3148,3.3103,3.3116,3.3114,3.3117,3.3118,3.3054,3.3148,3.3309,3.3324,3.3121,3.3119,3.3118,0,3.3041,3.3086,3.3141,3.3148,3.3148,3.3174,3.3175,3.3178,3.3193,3.321,3.3219,3.324,3.3251,3.3267,3.3244,3.3205,3.3305,3.3247,3.3298,3.3298,3.3319,3.3318,3.3483,3.3331,3.3331,3.3331,3.3331,0,3.3169,3.3221,3.3191,3.3224,3.328,3.3251,3.3307,3.3303,3.3306,3.3337,3.3298,3.3327,3.3296,3.3322,3.3304,3.3354,3.336,3.3353,3.3347,3.3355,3.3356,3.3362,3.3354,3.3335,3.3334,3.3333,3.3333,0,3.3301,3.3284,3.334,3.3335,3.3335,3.3377,3.3372,3.3402,3.3391,3.343,3.3438,3.342,3.3449,3.3428,3.3456,3.3444,3.351,3.3495,3.3508,3.3503,3.3554,3.3549,3.3728,3.3749,3.3585,3.3587,3.3588,0,3.3383,3.3422,3.3422,3.344,3.3443,3.3473,3.3488,3.3461,3.3478,3.3488,3.3517,3.3542,3.3561,3.361,3.3598,3.362,3.3604,3.3665,3.3607,3.3614,3.3603,3.36,3.3603,3.3676,3.3678,3.368,3.3681,0,3.353,3.3519,3.3543,3.3564,3.3583,3.3598,3.3609,3.3626,3.3598,3.362,3.3649,3.3664,3.3693,3.3719,3.3736,3.3736,3.3704,3.37,3.3712,3.372,3.3725,3.3722,3.3538,3.3695,3.3694,3.3693,3.3692,3.3692,3.3638,3.3669,3.3674,3.3701,3.3707,3.3719,3.3747,3.3739,3.3763,3.3785,3.3767,3.3802,3.3806,3.3826,3.383,3.3856,3.3831,3.385,3.3854,3.3859,3.3865,3.3723,3.3859,3.3859,3.3859,3.3858,3.3858,0,3.378,3.3781,3.3806,3.3824,3.3845,3.3814,3.3825,3.3845,3.3876,3.3883,3.3903,3.3936,3.3961,3.3952,3.3973,3.3996,3.3981,3.4002,3.3999,3.3999,3.3887,3.3873,3.4013,3.4013,3.4013,3.4013,3.4013,3.4013,3.3857,3.3908,3.3898,3.3951,3.3951,3.3985,3.3994,3.4004,3.4009,3.4048,3.4069,3.4063,3.4063,3.4084,3.4105,3.4101,3.411,3.4136,3.4127,3.4023,3.4007,3.3993,3.3979,3.4139,3.4139,3.4237,3.4238,3.4238]}]]